Location: New Plymouth
(39.0670°S, 174.0830°E)
Time: 09:26:16
(UTC+13:00)

STRAND 1 - Visible Passes

Search period start: 26 October 2020 00:00
Search period end: 05 November 2020 00:00
Orbit: 769 x 780 km, 98.4° (Epoch: 24 October)

Date Brightness Start Highest point End Pass type
(mag) Time Alt. Az. Time Alt. Az. Time Alt. Az.
26 Oct ? 20:56:46 10° NNW 21:00:56 25° W 21:05:09 10° SW visible
27 Oct ? 20:21:43 10° N 20:26:42 53° W 20:31:46 10° SSW visible
28 Oct ? 21:30:22 10° WNW 21:32:20 12° W 21:34:20 10° WSW visible
29 Oct ? 20:53:41 10° NNW 20:57:58 26° W 21:02:17 10° SW visible
30 Oct ? 20:18:43 10° N 20:23:45 57° W 20:28:50 10° SSW visible
31 Oct ? 21:27:02 10° WNW 21:29:21 13° W 21:31:42 10° WSW visible
01 Nov ? 20:50:37 10° NNW 20:54:59 28° W 20:59:25 10° SW visible
03 Nov ? 21:23:45 10° WNW 21:26:22 14° W 21:29:00 10° WSW visible
04 Nov ? 20:47:33 10° NNW 20:52:01 30° W 20:56:32 10° SW visible
